Temperature
5 5 4 5 5 6 6 6 6 7 7 8 8 8 8 9 9 10 10 11 12 13 13 13 14 14 14 14 14 14 15 15 14 14 14 14 14 15 14 14 14 14 14 14
4 4 5 5 6 6 6 6 6 7 8 8 7 8 8 9 9 10 10 11 12 12 13 13 14 14 14 14 14 14 14 14 14 14 14 15 14 15 15 14 14 14 14 14
4 5 5 6 6 6 6 6 6 7 7 7 7 8 8 8 9 10 10 11 11 12 13 13 13 14 14 14 14 14 14 14 14 14 14 14 14 14 14 14 14 14 14 14
4 5 5 5 6 6 6 6 7 7 6 6 7 7 7 8 8 9 9 10 11 12 12 13 14 14 14 14 14 14 14 14 14 14 14 14 14 14 14 14 14 14 14 14
4 5 5 5 5 6 6 6 6 6 6 5 6 6 7 7 8 8 9 10 10 11 12 13 13 13 14 14 14 14 14 14 14 14 14 14 14 14 14 14 14 14 13 13
4 5 5 5 6 6 6 6 5 5 5 5 6 6 6 7 8 8 8 9 10 11 12 12 13 13 13 13 14 14 14 13 13 13 13 13 13 13 13 13 13 13 13 13
4 5 5 6 6 5 5 4 4 4 4 5 6 6 6 7 7 7 8 9 9 10 11 12 12 13 13 13 13 13 13 13 13 13 13 13 13 13 13 13 13 13 13 13
3 4 5 5 5 5 5 5 4 5 5 5 5 6 6 7 7 7 8 8 9 10 11 11 12 12 12 13 13 13 13 13 13 13 13 13 13 13 13 13 13 13 13 13
3 4 5 5 5 5 5 4 4 3 4 4 5 5 6 7 7 6 7 7 8 9 10 10 11 11 12 12 12 12 13 13 13 13 12 12 12 12 12 12 12 13 12 12
3 4 4 5 5 5 5 4 4 4 4 5 5 5 5 6 6 6 5 6 7 8 9 10 10 11 11 11 12 12 12 12 12 12 12 12 12 12 12 12 12 12 12 12
3 3 4 4 5 5 5 5 4 3 4 4 5 6 6 6 6 5 5 6 7 7 8 9 9 10 10 11 11 11 11 11 11 12 12 12 12 12 12 12 12 12 12 12
3 3 3 4 5 5 5 5 4 4 4 3 4 5 6 5 5 5 5 6 7 7 8 8 9 9 9 10 10 10 10 11 11 11 11 11 11 11 11 11 11 11 11 11
4 3 3 4 4 5 4 5 4 4 3 3 4 5 6 5 5 5 5 6 6 7 7 8 8 8 9 9 9 9 10 10 10 10 11 11 11 11 11 11 11 11 11 10
4 3 3 4 4 4 4 5 4 4 4 4 4 5 5 5 5 5 5 5 6 6 7 7 7 7 8 8 8 9 9 9 9 9 10 10 10 10 10 10 10 10 10 10
3 3 4 4 4 4 4 5 4 4 4 4 5 5 5 5 4 4 5 5 6 6 6 6 6 6 7 7 7 8 8 8 8 8 9 9 9 9 9 9 9 9 9 9
3 3 4 4 4 4 4 4 4 4 4 4 5 5 4 4 4 4 4 5 5 5 5 6 5 6 6 6 7 7 7 7 7 8 8 8 8 8 8 8 8 8 8 8
2 3 3 3 4 4 4 4 4 4 4 4 4 4 4 4 3 3 3 4 4 4 5 5 5 5 5 5 5 6 6 7 7 7 7 7 7 7 7 7 7 7 7 7
2 2 3 3 4 4 5 4 4 4 4 3 4 3 3 3 3 3 3 3 4 4 4 4 5 5 5 5 5 5 5 6 6 6 6 6 6 6 6 6 7 7 6 6
1 2 2 2 3 3 4 4 3 4 4 3 3 3 3 3 3 3 3 3 3 3 4 4 4 4 4 4 5 5 5 5 5 6 6 6 6 6 6 6 6 6 6 6
1 1 2 2 3 3 4 4 3 4 3 3 3 2 2 2 2 2 3 2 3 3 3 3 3 4 4 4 4 4 5 5 5 5 5 5 5 5 5 5 5 5 5 5
2 2 1 2 2 3 3 3 3 3 3 2 2 2 2 1 2 2 2 2 2 2 2 3 3 3 3 3 3 4 4 4 4 4 4 4 5 5 5 5 5 5 5 5
1 1 2 2 2 2 3 2 2 2 2 2 2 2 2 1 1 1 1 1 2 2 2 2 2 2 3 3 3 3 3 3 3 4 4 4 4 4 4 4 4 4 4 4
0 1 1 2 2 2 2 2 3 2 2 2 2 2 1 1 1 1 1 1 1 1 1 1 1 2 2 2 2 2 3 3 3 3 3 3 3 3 3 3 3 3 3 3
-0 -0 0 0 1 1 2 2 2 2 2 2 1 1 1 1 0 0 0 0 0 0 1 1 1 1 1 1 2 2 2 2 2 2 2 2 3 3 3 3 3 3 3 3
-0 -1 -0 0 0 1 1 2 2 2 1 1 1 1 0 0 -0 -0 -0 -0 -0 -0 0 0 0 0 1 1 1 1 1 1 2 2 2 2 2 2 2 2 2 2 2 2
-2 -1 -0 1 1 0 1 2 2 1 1 1 0 0 0 -0 -1 -1 -1 -1 -1 -1 -0 -0 -0 -0 0 0 1 1 1 1 1 1 1 1 1 1 1 1 1 1 1 1
Wind_Speed
4 4 2 3 2 1 2 1 1 1 2 1 1 2 4 2 1 1 2 3 4 5 4 3 3 3 4 6 7 9 10 9 9 8 8 8 8 7 7 7 10 13 13 13
5 3 4 3 2 1 1 1 0 2 2 1 1 3 3 3 2 3 3 3 4 4 3 3 2 3 5 7 7 8 8 8 9 8 7 5 6 6 7 6 8 12 12 13
2 3 5 2 2 3 3 1 0 0 2 4 3 4 3 3 2 2 2 2 2 3 4 3 2 3 4 6 8 8 8 8 8 7 5 4 4 3 4 5 6 7 10 11
2 3 3 3 2 2 1 2 1 2 3 2 3 2 4 3 3 3 3 2 2 3 3 3 3 3 3 4 4 5 6 7 7 8 8 9 8 7 6 6 5 5 7 8
2 3 3 3 2 1 0 1 3 3 3 2 3 1 5 3 2 4 3 3 3 3 3 4 4 3 2 1 2 4 5 5 5 7 8 8 6 5 4 5 6 6 5 7
2 2 1 1 2 1 1 4 5 4 3 2 1 1 4 2 3 4 3 3 3 3 3 3 3 2 1 1 1 2 3 3 4 5 6 7 8 7 6 7 7 7 5 5
5 4 3 2 3 5 5 4 4 4 4 2 2 1 4 5 4 4 5 5 4 3 3 3 4 3 2 1 1 1 3 3 4 5 5 6 8 8 8 7 8 6 5 5
3 4 4 3 1 1 2 3 4 3 1 2 2 2 5 5 5 4 2 2 3 4 3 4 3 3 2 2 1 0 2 2 3 4 4 4 5 4 5 6 6 6 6 6
2 2 3 2 1 2 3 2 2 4 1 1 3 5 6 4 6 7 6 5 4 4 5 5 5 4 3 2 2 1 0 0 1 2 3 2 3 4 6 6 6 5 4 4
2 0 3 2 2 4 3 3 3 3 2 1 4 3 4 7 8 8 7 6 5 5 5 5 5 4 3 2 1 2 1 1 1 1 2 2 2 2 3 4 5 5 4 4
2 2 3 3 2 0 2 2 3 3 3 3 1 4 3 4 4 5 6 5 5 4 5 5 4 4 3 3 2 2 1 0 1 1 2 2 1 1 2 3 4 5 5 5
1 2 1 3 3 1 1 2 3 2 1 2 2 4 4 1 3 4 6 6 6 6 5 5 4 4 4 3 3 2 1 1 0 1 2 2 2 2 3 3 3 4 5 5
2 3 2 4 3 2 0 1 2 3 2 2 2 4 3 3 5 5 6 7 7 6 6 6 5 5 4 4 3 2 2 1 1 1 2 2 2 3 3 3 4 4 5 5
3 2 3 4 3 1 1 1 2 3 2 2 4 5 6 6 7 7 7 6 6 6 5 5 5 5 5 4 3 3 3 2 1 1 1 2 2 3 3 3 3 4 5 5
3 2 1 2 2 1 1 1 1 3 4 4 4 4 6 6 6 6 5 5 6 7 6 6 5 5 5 5 4 3 3 2 1 1 1 1 1 2 3 3 4 4 4 5
3 2 1 2 2 0 1 2 2 2 2 3 3 5 4 3 3 4 6 7 7 7 7 6 6 6 6 6 5 4 4 3 0 1 1 1 2 2 3 3 4 4 5 5
2 2 1 2 5 3 3 3 2 1 1 2 3 3 4 4 5 5 6 7 7 7 8 7 7 6 6 6 5 5 4 3 1 0 1 1 2 3 3 3 4 5 5 5
3 2 2 1 3 2 3 1 1 2 0 1 1 3 4 3 3 3 5 6 7 8 8 8 7 7 6 5 5 5 4 3 1 1 1 2 2 3 3 4 5 5 4 4
2 3 2 1 1 5 4 1 0 1 2 1 1 3 4 4 2 3 5 6 7 7 7 7 7 6 6 6 5 4 4 3 2 2 2 2 3 3 4 4 5 4 4 4
3 3 3 2 2 4 4 1 1 1 3 2 1 2 4 4 3 4 6 8 8 8 7 7 7 6 6 6 5 4 4 3 3 3 3 2 2 3 4 5 4 3 4 4
2 2 3 3 3 6 4 2 1 2 3 1 1 2 2 1 3 5 6 7 7 7 7 7 6 6 6 5 5 4 4 4 4 3 2 2 1 2 3 3 3 4 4 4
5 5 5 4 4 6 1 3 3 3 0 0 1 2 2 4 5 6 6 7 7 8 8 7 6 7 6 5 4 4 5 5 4 3 2 2 1 1 2 3 3 4 5 4
6 6 5 6 6 1 2 3 2 2 1 1 2 3 3 4 6 7 7 7 7 7 7 6 6 7 6 5 4 5 6 5 3 3 3 2 1 1 1 3 4 4 4 4
4 3 3 4 5 3 3 2 1 1 2 2 2 3 3 4 6 7 7 8 8 8 7 7 6 6 7 6 5 5 5 4 3 3 2 2 1 0 0 1 2 3 4 4
6 6 4 4 4 2 3 4 4 2 1 2 2 2 3 4 6 6 7 8 8 8 7 6 6 7 7 6 6 5 4 3 3 2 2 1 1 0 0 1 2 3 3 4
6 7 8 7 6 5 5 5 4 3 3 3 2 3 3 4 6 7 7 7 7 8 7 7 7 7 7 6 6 6 5 3 2 2 2 1 1 1 0 0 1 1 2 4
Wind_Direction
11 51 359 300 282 220 181 154 199 272 330 42 208 276 287 292 311 260 254 245 247 254 265 274 238 210 207 204 200 197 193 188 182 185 184 185 188 185 183 186 189 191 193 191
37 15 314 306 332 46 74 87 49 16 14 25 336 287 275 282 251 228 234 260 252 260 290 288 263 207 205 207 205 202 201 192 191 195 189 186 178 182 186 185 189 191 190 189
75 305 319 355 34 63 38 87 37 33 15 25 18 324 306 299 300 299 269 262 280 264 271 282 272 245 213 205 205 206 205 199 198 194 181 169 155 151 174 189 195 191 187 187
19 327 350 21 25 67 29 328 72 86 73 5 33 328 307 303 315 291 280 281 298 291 284 286 284 279 241 222 195 192 199 202 202 195 189 188 192 192 196 190 190 183 185 189
351 348 8 24 341 42 92 20 66 67 82 41 24 50 299 338 322 291 279 285 300 294 282 286 289 283 268 226 184 173 181 194 198 196 190 189 194 197 181 170 179 187 185 187
330 331 351 329 326 44 74 60 53 47 59 30 312 169 298 303 284 302 312 312 300 297 299 302 313 328 343 30 82 137 154 183 185 186 185 185 190 189 176 181 191 193 189 194
0 357 353 356 34 28 49 75 47 25 24 290 303 226 266 292 298 283 291 300 305 299 309 323 335 345 344 1 46 125 146 190 197 183 189 192 194 187 185 191 196 192 193 201
36 341 339 4 56 107 67 106 130 146 197 304 334 264 274 302 326 335 329 339 353 340 339 333 335 343 342 353 359 21 150 195 200 187 193 197 190 180 180 186 186 188 197 201
106 299 329 356 9 99 98 82 144 123 90 5 308 305 314 349 13 16 17 20 17 360 352 350 348 345 342 353 357 322 185 215 218 183 178 194 186 183 185 184 184 180 183 179
146 111 328 326 50 32 96 130 90 94 98 356 319 312 307 328 346 358 6 7 6 6 358 359 353 347 341 343 3 24 53 192 215 171 172 184 186 195 181 165 168 166 166 159
114 97 340 12 43 119 68 73 88 100 123 146 297 292 279 281 330 344 348 352 354 356 349 347 341 338 342 357 11 23 17 47 134 157 155 148 150 141 144 153 159 156 146 147
128 111 337 286 283 244 168 168 148 139 186 158 168 279 315 328 354 359 359 357 356 356 349 344 339 345 354 0 5 8 11 7 324 165 147 146 137 132 137 148 149 144 141 142
132 110 48 359 358 17 33 206 170 138 126 160 177 265 333 19 6 360 359 353 351 351 350 350 354 355 350 351 355 354 2 357 353 104 138 137 137 140 147 149 141 137 137 135
116 105 155 185 231 215 251 239 179 156 170 210 225 254 306 335 341 338 339 338 341 345 347 352 351 348 344 344 342 339 338 334 332 113 133 148 156 154 151 141 136 140 142 142
91 118 203 263 270 202 212 263 157 188 203 208 238 251 289 315 313 317 325 337 347 348 350 350 345 340 341 341 338 335 329 328 335 114 137 180 154 138 133 135 137 136 137 139
66 119 13 349 8 23 338 303 239 233 229 233 277 289 303 327 357 1 352 350 349 346 343 342 339 337 336 331 328 327 319 313 302 165 206 186 154 147 150 153 146 142 141 137
86 112 84 311 324 351 310 287 212 176 211 201 240 274 340 355 360 357 350 352 345 339 335 332 329 325 323 321 320 318 312 313 310 219 231 207 184 177 177 169 161 161 158 149
132 121 121 354 13 271 258 345 171 162 13 356 335 345 353 330 327 356 359 353 348 337 333 330 328 326 325 324 325 320 317 315 293 249 243 220 196 194 185 177 179 171 158 157
148 132 113 109 294 284 295 310 136 199 293 351 320 337 347 341 352 348 4 4 345 332 326 324 323 320 324 328 328 330 327 323 307 281 273 252 212 198 190 191 187 174 160 161
78 94 116 133 193 246 263 289 290 115 289 352 20 348 348 4 346 316 346 345 339 337 333 332 333 335 335 329 329 334 321 315 301 290 283 270 225 205 204 197 185 172 167 169
116 113 150 173 225 263 262 270 96 153 266 349 12 352 349 298 269 298 319 328 332 332 330 333 336 335 329 327 337 337 324 312 307 305 306 297 253 217 202 186 175 166 163 161
174 170 184 172 206 252 219 132 170 217 350 43 327 319 305 298 307 314 318 322 328 331 331 334 336 333 331 334 339 331 319 315 320 322 323 310 286 231 177 168 167 163 163 165
199 192 186 194 211 238 171 172 175 144 171 243 272 292 298 302 306 312 317 320 323 327 326 326 325 325 329 334 332 320 316 319 324 331 326 314 300 238 174 173 172 167 170 177
237 181 180 234 247 233 219 197 169 183 212 243 260 278 286 293 302 311 316 320 323 323 322 323 322 322 323 329 330 319 316 322 326 323 320 318 310 325 144 169 176 183 187 190
207 173 189 235 253 252 221 208 206 214 233 261 278 280 284 292 301 306 310 313 315 317 319 322 318 314 314 319 323 328 328 328 321 310 307 313 312 275 232 205 211 211 212 205
194 180 182 214 208 189 220 213 197 204 231 246 272 293 297 287 291 302 304 306 310 313 316 318 318 315 312 314 316 319 318 314 309 306 303 300 298 283 241 243 319 290 251 241
Height
1469 1472 1473 1472 1470 1469 1468 1468 1469 1467 1464 1464 1464 1464 1463 1461 1462 1462 1463 1464 1466 1467 1468 1470 1472 1474 1477 1480 1484 1488 1491 1494 1498 1501 1504 1507 1510 1514 1518 1521 1524 1527 1530 1532
1474 1475 1473 1470 1468 1468 1468 1469 1469 1467 1465 1465 1465 1464 1462 1461 1461 1461 1462 1463 1464 1466 1467 1469 1471 1473 1475 1477 1480 1484 1488 1491 1495 1498 1501 1505 1508 1511 1515 1518 1521 1524 1526 1529
1477 1477 1472 1470 1470 1469 1470 1471 1470 1469 1467 1466 1467 1466 1463 1461 1460 1460 1461 1463 1464 1464 1465 1467 1469 1472 1474 1476 1478 1481 1484 1488 1491 1494 1498 1501 1505 1508 1511 1514 1516 1519 1522 1525
1477 1475 1473 1472 1471 1471 1472 1471 1469 1468 1472 1475 1473 1475 1466 1463 1461 1460 1461 1461 1462 1463 1464 1466 1468 1470 1472 1475 1477 1479 1482 1485 1488 1490 1494 1496 1499 1502 1505 1509 1512 1515 1518 1521
1478 1476 1475 1474 1473 1472 1473 1471 1471 1472 1474 1479 1478 1478 1471 1465 1463 1461 1461 1461 1462 1463 1464 1465 1467 1468 1470 1472 1474 1476 1479 1481 1484 1486 1489 1492 1495 1498 1501 1505 1508 1511 1513 1516
1478 1477 1476 1475 1474 1473 1473 1474 1475 1478 1480 1484 1481 1481 1476 1469 1466 1462 1460 1460 1462 1463 1464 1464 1466 1467 1469 1471 1472 1474 1476 1478 1481 1483 1485 1488 1491 1494 1497 1500 1503 1506 1509 1511
1482 1479 1477 1476 1475 1476 1476 1482 1489 1489 1492 1488 1482 1481 1476 1467 1465 1463 1461 1460 1461 1462 1462 1463 1464 1466 1467 1469 1471 1473 1474 1477 1478 1481 1482 1485 1488 1490 1492 1496 1499 1502 1504 1506
1488 1487 1480 1478 1478 1479 1480 1483 1491 1493 1493 1489 1483 1481 1474 1466 1464 1462 1461 1461 1461 1461 1461 1462 1463 1464 1466 1468 1469 1471 1473 1475 1477 1478 1480 1482 1484 1486 1489 1492 1495 1498 1500 1503
1488 1487 1481 1479 1478 1479 1481 1485 1486 1493 1495 1494 1487 1481 1472 1465 1464 1464 1462 1461 1461 1461 1462 1462 1463 1464 1465 1466 1468 1470 1471 1473 1475 1477 1479 1480 1481 1483 1486 1489 1492 1493 1496 1498
1486 1487 1483 1480 1479 1480 1481 1483 1488 1491 1493 1492 1487 1484 1479 1470 1468 1466 1465 1463 1462 1462 1462 1462 1463 1463 1464 1465 1467 1468 1470 1471 1473 1474 1476 1478 1479 1481 1482 1485 1487 1489 1492 1494
1485 1488 1487 1483 1483 1483 1484 1485 1487 1492 1494 1495 1492 1485 1474 1472 1470 1468 1466 1465 1464 1463 1463 1463 1463 1463 1463 1463 1464 1466 1467 1469 1470 1471 1473 1475 1476 1478 1479 1481 1483 1485 1487 1489
1485 1489 1491 1487 1483 1483 1483 1484 1487 1491 1494 1497 1496 1489 1473 1472 1470 1469 1467 1466 1465 1464 1464 1463 1462 1462 1462 1462 1463 1464 1465 1466 1467 1468 1470 1471 1473 1474 1476 1477 1479 1481 1483 1485
1485 1489 1493 1489 1489 1486 1484 1484 1485 1488 1492 1496 1495 1487 1473 1472 1471 1470 1469 1467 1466 1465 1464 1463 1462 1461 1461 1460 1461 1461 1462 1463 1464 1465 1466 1467 1469 1471 1472 1473 1475 1477 1479 1480
1483 1488 1492 1491 1487 1486 1485 1483 1484 1486 1491 1491 1488 1481 1475 1473 1472 1471 1469 1468 1466 1465 1464 1462 1461 1460 1459 1459 1459 1459 1459 1460 1461 1462 1463 1464 1465 1467 1468 1469 1471 1472 1475 1476
1483 1488 1487 1487 1485 1484 1484 1483 1482 1483 1483 1485 1481 1479 1476 1475 1474 1472 1470 1468 1466 1464 1464 1463 1462 1460 1459 1458 1458 1458 1458 1458 1458 1459 1460 1461 1461 1462 1464 1465 1467 1468 1470 1472
1485 1488 1486 1486 1484 1484 1484 1482 1482 1482 1481 1481 1479 1478 1475 1474 1472 1471 1469 1468 1466 1465 1464 1463 1461 1460 1458 1457 1456 1456 1455 1456 1456 1456 1457 1457 1458 1459 1460 1462 1463 1464 1466 1468
1488 1488 1489 1489 1487 1483 1484 1481 1480 1480 1480 1479 1479 1478 1475 1474 1473 1471 1470 1469 1467 1466 1464 1462 1460 1459 1457 1456 1455 1454 1453 1453 1453 1453 1454 1454 1455 1456 1457 1458 1459 1461 1462 1464
1488 1489 1491 1491 1489 1488 1483 1479 1478 1478 1479 1478 1477 1476 1475 1475 1473 1472 1471 1469 1468 1466 1464 1462 1460 1458 1456 1455 1453 1452 1451 1451 1450 1450 1450 1451 1451 1452 1453 1454 1455 1457 1458 1460
1487 1489 1492 1494 1494 1489 1481 1479 1479 1479 1478 1477 1477 1477 1476 1474 1472 1471 1471 1469 1468 1466 1464 1461 1459 1457 1455 1453 1451 1450 1449 1449 1448 1447 1447 1447 1447 1448 1449 1450 1451 1453 1454 1456
1488 1489 1494 1495 1492 1490 1480 1478 1477 1479 1479 1477 1476 1476 1476 1474 1475 1473 1471 1469 1466 1464 1462 1460 1458 1455 1453 1451 1450 1448 1447 1446 1445 1444 1444 1444 1444 1444 1445 1446 1448 1449 1451 1452
1489 1491 1494 1495 1494 1485 1479 1477 1477 1483 1480 1477 1476 1476 1476 1475 1475 1473 1470 1468 1465 1463 1461 1458 1456 1454 1452 1450 1448 1446 1444 1443 1442 1442 1441 1441 1441 1441 1442 1443 1444 1446 1447 1449
1486 1488 1489 1491 1492 1487 1476 1476 1479 1478 1476 1476 1475 1475 1475 1474 1472 1470 1468 1466 1463 1461 1458 1456 1453 1451 1449 1447 1445 1443 1442 1441 1440 1439 1438 1438 1438 1438 1439 1440 1441 1442 1443 1445
1483 1481 1481 1482 1480 1475 1474 1474 1475 1475 1475 1475 1474 1474 1473 1471 1470 1468 1465 1463 1461 1458 1456 1453 1451 1449 1447 1445 1443 1441 1439 1438 1437 1436 1435 1435 1435 1435 1436 1436 1437 1439 1440 1441
1478 1477 1478 1478 1473 1472 1472 1472 1473 1473 1474 1473 1473 1472 1471 1469 1467 1465 1463 1461 1458 1456 1453 1451 1449 1446 1444 1442 1440 1439 1437 1435 1434 1433 1433 1432 1432 1432 1432 1433 1434 1435 1436 1437
1471 1473 1475 1474 1471 1470 1470 1470 1471 1471 1471 1471 1470 1470 1468 1467 1465 1463 1461 1458 1456 1453 1451 1449 1446 1444 1442 1440 1438 1436 1434 1433 1432 1431 1430 1430 1429 1429 1429 1430 1431 1431 1432 1433
1465 1467 1469 1467 1464 1466 1466 1467 1468 1468 1468 1468 1467 1466 1465 1464 1462 1460 1458 1456 1453 1451 1448 1446 1443 1441 1439 1437 1435 1434 1432 1431 1429 1428 1428 1427 1426 1426 1426 1426 1427 1427 1429 1430